This is the latest recevied weather packets stored in our database for station/object W5COG. If no packets are shown the sender has not sent any weather packets the latest 10 day(s).
| Time | Temp. | Humidity | Pressure | Rain* | Wind** | Luminosity | Snow |
|---|---|---|---|---|---|---|---|
| 1778286029 | 16.67° C | 90% | 1007.9 hPa | 3.81 mm | - | 67 W/m² | - |
| 1778285428 | 16.67° C | 90% | 1008.2 hPa | 3.81 mm | - | 132 W/m² | - |
| 1778285128 | 16.11° C | 89% | 1009 hPa | 3.81 mm | - | 64 W/m² | - |
| 1778284829 | 16.11° C | 89% | 1008.9 hPa | 3.3 mm | - | 15 W/m² | - |
| 1778284529 | 16.11° C | 88% | 1007.8 hPa | 3.3 mm | - | 9 W/m² | - |
| 1778284229 | 16.67° C | 87% | 1008 hPa | 3.3 mm | - | 7 W/m² | - |
| 1778283928 | 17.22° C | 85% | 1008.1 hPa | 3.05 mm | - | 14 W/m² | - |
| 1778283629 | 18.33° C | 77% | 1008.2 hPa | 2.03 mm | - | 13 W/m² | - |
| 1778283329 | 18.89° C | 72% | 1007.5 hPa | 0 mm | - | 7 W/m² | - |
| 1778283029 | 19.44° C | 70% | 1007.2 hPa | 0 mm | - | 15 W/m² | - |
| 1778282729 | 20° C | 65% | 1007.7 hPa | 0 mm | - | 12 W/m² | - |
| 1778282428 | 20.56° C | 60% | 1007.6 hPa | 0 mm | - | 6 W/m² | - |
| 1778282128 | 21.11° C | 55% | 1007.4 hPa | 0 mm | - | 3 W/m² | - |
| 1778281829 | 21.67° C | 51% | 1006.7 hPa | 0 mm | - | 3 W/m² | - |
| 1778281529 | 22.22° C | 52% | 1006.1 hPa | 0 mm | - | 3 W/m² | - |
| 1778281229 | 23.89° C | 54% | 1005.8 hPa | 0 mm | - | 5 W/m² | - |
| 1778280929 | 25.56° C | 48% | 1005.9 hPa | 0 mm | - | 21 W/m² | - |
| 1778280629 | 26.11° C | 48% | 1005.6 hPa | 0 mm | - | 62 W/m² | - |
| 1778280329 | 26.67° C | 48% | 1005.5 hPa | 0 mm | - | 84 W/m² | - |
| 1778280029 | 27.22° C | 46% | 1005.5 hPa | 0 mm | - | 121 W/m² | - |
| 1778279729 | 27.22° C | 47% | 1005.6 hPa | 0 mm | - | 453 W/m² | - |
| 1778279429 | 27.22° C | 46% | 1005.7 hPa | 0 mm | - | 493 W/m² | - |
| 1778279129 | 27.22° C | 46% | 1005.7 hPa | 0 mm | - | 486 W/m² | - |
| 1778278829 | 27.22° C | 46% | 1005.8 hPa | 0 mm | - | 511 W/m² | - |
| 1778278529 | 27.22° C | 45% | 1005.8 hPa | 0 mm | - | 533 W/m² | - |
* Rain latest hour (hover to see other rain measurements)
** Current wind speed in m/s (hover to see current wind gust speed)